Time,TemperatureF,DewpointF,PressureIn,WindDirection,WindDirectionDegrees,WindSpeedMPH,WindSpeedGustMPH,Humidity,HourlyPrecipIn,Conditions,Clouds,dailyrainin,SoftwareType,DateUTC
2013-01-15 00:00:00,22.4,16.6,30.34,NNE,32,2.0,7.0,78,0.00,,---,0.00,VWS V14.00,2013-01-15 06:00:00,
2013-01-15 00:02:00,22.4,16.6,30.34,NNE,32,3.0,6.0,78,0.00,,---,0.00,VWS V14.00,2013-01-15 06:02:00,
2013-01-15 00:05:00,22.3,16.5,30.34,NNE,32,2.0,6.0,78,0.00,,---,0.00,VWS V14.00,2013-01-15 06:05:00,
2013-01-15 00:07:00,22.3,16.5,30.34,NNE,32,4.0,7.0,78,0.00,,---,0.00,VWS V14.00,2013-01-15 06:07:00,
2013-01-15 00:10:00,22.2,16.4,30.34,NNE,31,6.0,7.0,78,0.00,,---,0.00,VWS V14.00,2013-01-15 06:10:00,
2013-01-15 00:12:00,22.2,16.4,30.34,NNE,31,5.0,7.0,78,0.00,,---,0.00,VWS V14.00,2013-01-15 06:12:00,
2013-01-15 00:15:00,22.2,16.7,30.34,NNE,31,5.0,7.0,79,0.00,,---,0.00,VWS V14.00,2013-01-15 06:15:00,
2013-01-15 00:17:00,22.2,16.7,30.34,NNE,31,3.0,7.0,79,0.00,,---,0.00,VWS V14.00,2013-01-15 06:17:00,
2013-01-15 00:20:00,22.2,16.7,30.34,NNE,31,2.0,7.0,79,0.00,,---,0.00,VWS V14.00,2013-01-15 06:20:00,
2013-01-15 00:22:00,22.1,16.6,30.34,NNE,31,7.0,7.0,79,0.00,,---,0.00,VWS V14.00,2013-01-15 06:22:00,
2013-01-15 00:25:00,22.1,16.6,30.34,NNE,30,5.0,7.0,79,0.00,,---,0.00,VWS V14.00,2013-01-15 06:25:00,
2013-01-15 00:27:00,22.1,16.6,30.34,NNE,30,2.0,7.0,79,0.00,,---,0.00,VWS V14.00,2013-01-15 06:27:00,
2013-01-15 00:30:00,22.1,16.6,30.34,NNE,30,4.0,7.0,79,0.00,,---,0.00,VWS V14.00,2013-01-15 06:30:00,
2013-01-15 00:32:00,22.0,16.5,30.34,NNE,30,3.0,6.0,79,0.00,,---,0.00,VWS V14.00,2013-01-15 06:32:00,
2013-01-15 00:35:00,22.0,16.5,30.34,NNE,30,5.0,7.0,79,0.00,,---,0.00,VWS V14.00,2013-01-15 06:35:00,
2013-01-15 00:37:00,22.0,16.5,30.34,NNE,30,6.0,7.0,79,0.00,,---,0.00,VWS V14.00,2013-01-15 06:37:00,
2013-01-15 00:40:00,22.0,16.8,30.34,NNE,30,3.0,7.0,80,0.00,,---,0.00,VWS V14.00,2013-01-15 06:40:00,
2013-01-15 00:42:00,22.0,16.8,30.34,NNE,30,7.0,7.0,80,0.00,,---,0.00,VWS V14.00,2013-01-15 06:42:00,
2013-01-15 00:45:00,21.9,16.7,30.33,NNE,30,3.0,7.0,80,0.00,,---,0.00,VWS V14.00,2013-01-15 06:45:00,
2013-01-15 00:47:00,21.9,16.7,30.33,NNE,30,6.0,6.0,80,0.00,,---,0.00,VWS V14.00,2013-01-15 06:47:00,
2013-01-15 00:50:00,21.8,16.6,30.34,NNE,30,5.0,6.0,80,0.00,,---,0.00,VWS V14.00,2013-01-15 06:50:00,
2013-01-15 00:52:00,21.8,16.6,30.34,NNE,30,3.0,7.0,80,0.00,,---,0.00,VWS V14.00,2013-01-15 06:52:00,
2013-01-15 00:55:00,21.8,16.6,30.34,NNE,30,6.0,7.0,80,0.00,,---,0.00,VWS V14.00,2013-01-15 06:55:00,
2013-01-15 00:57:00,21.7,16.5,30.34,NNE,30,6.0,7.0,80,0.00,,---,0.00,VWS V14.00,2013-01-15 06:57:00,
2013-01-15 01:00:00,21.7,16.5,30.34,NNE,30,5.0,7.0,80,0.00,,---,0.00,VWS V14.00,2013-01-15 07:00:00,
2013-01-15 01:02:00,21.6,16.4,30.34,NNE,29,6.0,9.0,80,0.00,,---,0.00,VWS V14.00,2013-01-15 07:02:00,
2013-01-15 01:05:00,21.6,16.4,30.34,NNE,29,6.0,9.0,80,0.00,,---,0.00,VWS V14.00,2013-01-15 07:05:00,
2013-01-15 01:07:00,21.6,16.4,30.34,NNE,29,5.0,7.0,80,0.00,,---,0.00,VWS V14.00,2013-01-15 07:07:00,
2013-01-15 01:10:00,21.6,16.4,30.34,NNE,29,6.0,7.0,80,0.00,,---,0.00,VWS V14.00,2013-01-15 07:10:00,
2013-01-15 01:12:00,21.5,16.3,30.34,NNE,29,2.0,6.0,80,0.00,,---,0.00,VWS V14.00,2013-01-15 07:12:00,
2013-01-15 01:15:00,21.5,16.3,30.34,NNE,29,4.0,6.0,80,0.00,,---,0.00,VWS V14.00,2013-01-15 07:15:00,
2013-01-15 01:17:00,21.5,16.6,30.34,NNE,29,5.0,6.0,81,0.00,,---,0.00,VWS V14.00,2013-01-15 07:17:00,
2013-01-15 01:20:00,21.4,16.5,30.34,NNE,28,5.0,8.0,81,0.00,,---,0.00,VWS V14.00,2013-01-15 07:20:00,
2013-01-15 01:22:00,21.4,16.5,30.33,NNE,28,4.0,7.0,81,0.00,,---,0.00,VWS V14.00,2013-01-15 07:22:00,
2013-01-15 01:25:00,21.4,16.5,30.33,NNE,28,5.0,7.0,81,0.00,,---,0.00,VWS V14.00,2013-01-15 07:25:00,
2013-01-15 01:27:00,21.4,16.5,30.33,NNE,28,3.0,6.0,81,0.00,,---,0.00,VWS V14.00,2013-01-15 07:27:00,
2013-01-15 01:30:00,21.3,16.4,30.33,NNE,28,3.0,6.0,81,0.00,,---,0.00,VWS V14.00,2013-01-15 07:30:00,
2013-01-15 01:32:00,21.2,16.3,30.32,NNE,28,5.0,6.0,81,0.00,,---,0.00,VWS V14.00,2013-01-15 07:32:00,
2013-01-15 01:35:00,21.2,16.3,30.32,NNE,28,6.0,7.0,81,0.00,,---,0.00,VWS V14.00,2013-01-15 07:35:00,
2013-01-15 01:37:00,21.2,16.3,30.32,NNE,28,5.0,7.0,81,0.00,,---,0.00,VWS V14.00,2013-01-15 07:37:00,
2013-01-15 01:40:00,21.1,16.2,30.32,NNE,28,3.0,7.0,81,0.00,,---,0.00,VWS V14.00,2013-01-15 07:40:00,
2013-01-15 01:42:00,21.1,16.2,30.32,NNE,28,3.0,6.0,81,0.00,,---,0.00,VWS V14.00,2013-01-15 07:42:00,
2013-01-15 01:45:00,21.0,16.1,30.32,NNE,28,5.0,6.0,81,0.00,,---,0.00,VWS V14.00,2013-01-15 07:45:00,
2013-01-15 01:47:00,20.9,16.3,30.32,NNE,28,4.0,7.0,82,0.00,,---,0.00,VWS V14.00,2013-01-15 07:47:00,
2013-01-15 01:50:00,20.9,16.3,30.32,NNE,28,3.0,7.0,82,0.00,,---,0.00,VWS V14.00,2013-01-15 07:50:00,
2013-01-15 01:52:00,20.8,16.2,30.32,NNE,28,2.0,4.0,82,0.00,,---,0.00,VWS V14.00,2013-01-15 07:52:00,
2013-01-15 01:55:00,20.8,16.2,30.32,NNE,28,3.0,6.0,82,0.00,,---,0.00,VWS V14.00,2013-01-15 07:55:00,
2013-01-15 01:57:00,20.7,16.1,30.32,NNE,28,2.0,5.0,82,0.00,,---,0.00,VWS V14.00,2013-01-15 07:57:00,
2013-01-15 02:00:00,20.6,16.0,30.32,NNE,28,4.0,5.0,82,0.00,,---,0.00,VWS V14.00,2013-01-15 08:00:00,
2013-01-15 02:02:00,20.6,16.0,30.32,NNE,28,3.0,5.0,82,0.00,,---,0.00,VWS V14.00,2013-01-15 08:02:00,
2013-01-15 02:05:00,20.5,15.9,30.32,NNE,28,2.0,5.0,82,0.00,,---,0.00,VWS V14.00,2013-01-15 08:05:00,
2013-01-15 02:07:00,20.4,15.8,30.32,NNE,28,1.0,4.0,82,0.00,,---,0.00,VWS V14.00,2013-01-15 08:07:00,
2013-01-15 02:10:00,20.3,15.7,30.32,NNE,28,1.0,4.0,82,0.00,,---,0.00,VWS V14.00,2013-01-15 08:10:00,
2013-01-15 02:12:00,20.3,15.7,30.32,NNE,28,3.0,3.0,82,0.00,,---,0.00,VWS V14.00,2013-01-15 08:12:00,
2013-01-15 02:15:00,20.2,15.9,30.32,NNE,28,3.0,3.0,83,0.00,,---,0.00,VWS V14.00,2013-01-15 08:15:00,
2013-01-15 02:17:00,20.0,15.7,30.32,NNE,28,1.0,3.0,83,0.00,,---,0.00,VWS V14.00,2013-01-15 08:17:00,
2013-01-15 02:20:00,20.0,15.4,30.32,NNE,28,0.0,3.0,82,0.00,,---,0.00,VWS V14.00,2013-01-15 08:20:00,
2013-01-15 02:22:00,19.9,15.6,30.32,NNE,28,0.0,0.0,83,0.00,,---,0.00,VWS V14.00,2013-01-15 08:22:00,
2013-01-15 02:25:00,19.8,15.5,30.32,NNE,28,0.0,0.0,83,0.00,,---,0.00,VWS V14.00,2013-01-15 08:25:00,
2013-01-15 02:27:00,19.7,15.4,30.32,NNE,28,0.0,0.0,83,0.00,,---,0.00,VWS V14.00,2013-01-15 08:27:00,
2013-01-15 02:30:00,19.7,15.4,30.32,NNE,28,0.0,0.0,83,0.00,,---,0.00,VWS V14.00,2013-01-15 08:30:00,
2013-01-15 02:32:00,19.7,15.4,30.32,NNE,28,3.0,3.0,83,0.00,,---,0.00,VWS V14.00,2013-01-15 08:32:00,
2013-01-15 02:35:00,19.7,15.4,30.32,NNE,28,2.0,3.0,83,0.00,,---,0.00,VWS V14.00,2013-01-15 08:35:00,
2013-01-15 02:37:00,19.7,15.4,30.32,NNE,28,2.0,4.0,83,0.00,,---,0.00,VWS V14.00,2013-01-15 08:37:00,
2013-01-15 02:40:00,19.7,15.4,30.32,NNE,28,2.0,4.0,83,0.00,,---,0.00,VWS V14.00,2013-01-15 08:40:00,
2013-01-15 02:42:00,19.7,15.7,30.32,NNE,28,1.0,4.0,84,0.00,,---,0.00,VWS V14.00,2013-01-15 08:42:00,
2013-01-15 02:45:00,19.7,15.7,30.32,NNE,28,3.0,4.0,84,0.00,,---,0.00,VWS V14.00,2013-01-15 08:45:00,
2013-01-15 02:47:00,19.7,15.7,30.32,NNE,28,0.0,4.0,84,0.00,,---,0.00,VWS V14.00,2013-01-15 08:47:00,
2013-01-15 02:50:00,19.7,15.7,30.32,NNE,28,2.0,5.0,84,0.00,,---,0.00,VWS V14.00,2013-01-15 08:50:00,
2013-01-15 02:52:00,19.7,15.7,30.32,NNE,28,3.0,5.0,84,0.00,,---,0.00,VWS V14.00,2013-01-15 08:52:00,
2013-01-15 02:55:00,19.7,15.7,30.32,NNE,28,3.0,5.0,84,0.00,,---,0.00,VWS V14.00,2013-01-15 08:55:00,
2013-01-15 02:57:00,19.7,15.7,30.32,NNE,28,3.0,5.0,84,0.00,,---,0.00,VWS V14.00,2013-01-15 08:57:00,
2013-01-15 03:00:00,19.7,15.7,30.32,NNE,28,2.0,5.0,84,0.00,,---,0.00,VWS V14.00,2013-01-15 09:00:00,
2013-01-15 03:02:00,19.7,15.7,30.32,NNE,28,1.0,4.0,84,0.00,,---,0.00,VWS V14.00,2013-01-15 09:02:00,
2013-01-15 03:05:00,19.7,15.7,30.32,NNE,28,2.0,4.0,84,0.00,,---,0.00,VWS V14.00,2013-01-15 09:05:00,
2013-01-15 03:07:00,19.7,15.7,30.32,NNE,28,2.0,4.0,84,0.00,,---,0.00,VWS V14.00,2013-01-15 09:07:00,
2013-01-15 03:10:00,19.7,15.7,30.32,NNE,28,0.0,4.0,84,0.00,,---,0.00,VWS V14.00,2013-01-15 09:10:00,
2013-01-15 03:12:00,19.7,15.7,30.32,NNE,28,2.0,3.0,84,0.00,,---,0.00,VWS V14.00,2013-01-15 09:12:00,
2013-01-15 03:15:00,19.7,15.7,30.32,NNE,28,2.0,3.0,84,0.00,,---,0.00,VWS V14.00,2013-01-15 09:15:00,
2013-01-15 03:17:00,19.7,15.7,30.32,NNE,28,0.0,3.0,84,0.00,,---,0.00,VWS V14.00,2013-01-15 09:17:00,
2013-01-15 03:20:00,19.6,15.6,30.32,NNE,28,6.0,6.0,84,0.00,,---,0.00,VWS V14.00,2013-01-15 09:20:00,
2013-01-15 03:22:00,19.5,15.7,30.32,NNE,28,4.0,6.0,85,0.00,,---,0.00,VWS V14.00,2013-01-15 09:22:00,
2013-01-15 03:25:00,19.5,15.7,30.32,NNE,28,3.0,6.0,85,0.00,,---,0.00,VWS V14.00,2013-01-15 09:25:00,
2013-01-15 03:27:00,19.6,15.6,30.32,NNE,28,1.0,5.0,84,0.00,,---,0.00,VWS V14.00,2013-01-15 09:27:00,
2013-01-15 03:30:00,19.6,15.6,30.32,NNE,28,2.0,5.0,84,0.00,,---,0.00,VWS V14.00,2013-01-15 09:30:00,
2013-01-15 03:32:00,19.6,15.6,30.32,NNE,28,3.0,5.0,84,0.00,,---,0.00,VWS V14.00,2013-01-15 09:32:00,
2013-01-15 03:35:00,19.6,15.8,30.32,NNE,28,5.0,5.0,85,0.00,,---,0.00,VWS V14.00,2013-01-15 09:35:00,
2013-01-15 03:37:00,19.7,15.9,30.32,NNE,28,3.0,5.0,85,0.00,,---,0.00,VWS V14.00,2013-01-15 09:37:00,
2013-01-15 03:40:00,19.7,15.9,30.33,NNE,28,2.0,5.0,85,0.00,,---,0.00,VWS V14.00,2013-01-15 09:40:00,
2013-01-15 03:42:00,19.7,15.9,30.33,NNE,28,1.0,5.0,85,0.00,,---,0.00,VWS V14.00,2013-01-15 09:42:00,
2013-01-15 03:45:00,19.7,15.9,30.33,NNE,28,3.0,5.0,85,0.00,,---,0.00,VWS V14.00,2013-01-15 09:45:00,
2013-01-15 03:47:00,19.7,15.9,30.33,NNE,28,2.0,4.0,85,0.00,,---,0.00,VWS V14.00,2013-01-15 09:47:00,
2013-01-15 03:50:00,19.7,15.9,30.33,NNE,28,3.0,4.0,85,0.00,,---,0.00,VWS V14.00,2013-01-15 09:50:00,
2013-01-15 03:52:00,19.7,15.9,30.33,NNE,28,3.0,4.0,85,0.00,,---,0.00,VWS V14.00,2013-01-15 09:52:00,
2013-01-15 03:55:00,19.7,15.9,30.33,NNE,28,2.0,4.0,85,0.00,,---,0.00,VWS V14.00,2013-01-15 09:55:00,
2013-01-15 03:57:00,19.7,15.9,30.33,NNE,28,3.0,5.0,85,0.00,,---,0.00,VWS V14.00,2013-01-15 09:57:00,
2013-01-15 04:00:00,19.7,15.9,30.33,NNE,28,0.0,5.0,85,0.00,,---,0.00,VWS V14.00,2013-01-15 10:00:00,
2013-01-15 04:02:00,19.7,15.9,30.33,NNE,28,4.0,6.0,85,0.00,,---,0.00,VWS V14.00,2013-01-15 10:02:00,
2013-01-15 04:05:00,19.7,15.9,30.33,NNE,28,2.0,6.0,85,0.00,,---,0.00,VWS V14.00,2013-01-15 10:05:00,
2013-01-15 04:07:00,19.7,15.9,30.33,NNE,28,3.0,6.0,85,0.00,,---,0.00,VWS V14.00,2013-01-15 10:07:00,
2013-01-15 04:10:00,19.7,15.9,30.32,NNE,28,5.0,6.0,85,0.00,,---,0.00,VWS V14.00,2013-01-15 10:10:00,
2013-01-15 04:12:00,19.7,15.9,30.32,NNE,28,5.0,6.0,85,0.00,,---,0.00,VWS V14.00,2013-01-15 10:12:00,
2013-01-15 04:15:00,19.7,15.9,30.32,NNE,28,5.0,6.0,85,0.00,,---,0.00,VWS V14.00,2013-01-15 10:15:00,
2013-01-15 04:17:00,19.7,15.9,30.32,NNE,28,5.0,7.0,85,0.00,,---,0.00,VWS V14.00,2013-01-15 10:17:00,
2013-01-15 04:20:00,19.7,15.9,30.32,NNE,28,4.0,7.0,85,0.00,,---,0.00,VWS V14.00,2013-01-15 10:20:00,
2013-01-15 04:22:00,19.7,15.9,30.32,NNE,28,6.0,6.0,85,0.00,,---,0.00,VWS V14.00,2013-01-15 10:22:00,
2013-01-15 04:25:00,19.7,15.9,30.31,NNE,28,4.0,6.0,85,0.00,,---,0.00,VWS V14.00,2013-01-15 10:25:00,
2013-01-15 04:27:00,19.7,15.9,30.31,NNE,28,5.0,7.0,85,0.00,,---,0.00,VWS V14.00,2013-01-15 10:27:00,
2013-01-15 04:30:00,19.7,15.9,30.31,NNE,28,5.0,7.0,85,0.00,,---,0.00,VWS V14.00,2013-01-15 10:30:00,
2013-01-15 04:32:00,19.6,15.8,30.31,NNE,28,4.0,9.0,85,0.00,,---,0.00,VWS V14.00,2013-01-15 10:32:00,
2013-01-15 04:35:00,19.6,15.8,30.31,NNE,28,4.0,9.0,85,0.00,,---,0.00,VWS V14.00,2013-01-15 10:35:00,
2013-01-15 04:37:00,19.7,15.9,30.31,NNE,27,5.0,9.0,85,0.00,,---,0.00,VWS V14.00,2013-01-15 10:37:00,
2013-01-15 04:40:00,19.7,15.9,30.31,NNE,27,4.0,9.0,85,0.00,,---,0.00,VWS V14.00,2013-01-15 10:40:00,
2013-01-15 04:42:00,19.7,15.9,30.30,NNE,27,4.0,7.0,85,0.00,,---,0.00,VWS V14.00,2013-01-15 10:42:00,
2013-01-15 04:45:00,19.7,15.9,30.30,NNE,27,4.0,9.0,85,0.00,,---,0.00,VWS V14.00,2013-01-15 10:45:00,
2013-01-15 04:47:00,19.7,16.2,30.30,NNE,27,5.0,7.0,86,0.00,,---,0.00,VWS V14.00,2013-01-15 10:47:00,
2013-01-15 04:50:00,19.7,15.9,30.30,NNE,27,4.0,7.0,85,0.00,,---,0.00,VWS V14.00,2013-01-15 10:50:00,
2013-01-15 04:52:00,19.8,16.3,30.30,NNE,27,3.0,5.0,86,0.00,,---,0.00,VWS V14.00,2013-01-15 10:52:00,
2013-01-15 04:55:00,19.9,16.4,30.31,NNE,27,5.0,7.0,86,0.00,,---,0.00,VWS V14.00,2013-01-15 10:55:00,
2013-01-15 04:57:00,20.0,16.5,30.31,NNE,27,4.0,6.0,86,0.00,,---,0.00,VWS V14.00,2013-01-15 10:57:00,
2013-01-15 05:00:00,20.1,16.6,30.30,NNE,26,5.0,7.0,86,0.00,,---,0.00,VWS V14.00,2013-01-15 11:00:00,
2013-01-15 05:02:00,20.2,16.7,30.31,NNE,26,5.0,7.0,86,0.00,,---,0.00,VWS V14.00,2013-01-15 11:02:00,
2013-01-15 05:05:00,20.3,16.8,30.31,NNE,26,3.0,7.0,86,0.00,,---,0.00,VWS V14.00,2013-01-15 11:05:00,
2013-01-15 05:07:00,20.3,16.8,30.31,NNE,26,4.0,5.0,86,0.00,,---,0.00,VWS V14.00,2013-01-15 11:07:00,
2013-01-15 05:10:00,20.4,16.9,30.31,NNE,26,3.0,5.0,86,0.00,,---,0.00,VWS V14.00,2013-01-15 11:10:00,
2013-01-15 05:12:00,20.5,17.0,30.31,NNE,26,4.0,5.0,86,0.00,,---,0.00,VWS V14.00,2013-01-15 11:12:00,
2013-01-15 05:15:00,20.6,17.1,30.31,NNE,26,4.0,5.0,86,0.00,,---,0.00,VWS V14.00,2013-01-15 11:15:00,
2013-01-15 05:17:00,20.6,17.1,30.31,NNE,26,2.0,7.0,86,0.00,,---,0.00,VWS V14.00,2013-01-15 11:17:00,
2013-01-15 05:20:00,20.6,17.1,30.31,NNE,26,2.0,7.0,86,0.00,,---,0.00,VWS V14.00,2013-01-15 11:20:00,
2013-01-15 05:22:00,20.6,17.1,30.31,NNE,26,2.0,5.0,86,0.00,,---,0.00,VWS V14.00,2013-01-15 11:22:00,
2013-01-15 05:25:00,20.6,17.1,30.31,NNE,26,2.0,5.0,86,0.00,,---,0.00,VWS V14.00,2013-01-15 11:25:00,
2013-01-15 05:27:00,20.6,17.1,30.31,NNE,26,1.0,4.0,86,0.00,,---,0.00,VWS V14.00,2013-01-15 11:27:00,
2013-01-15 05:30:00,20.7,17.2,30.31,NNE,26,1.0,5.0,86,0.00,,---,0.00,VWS V14.00,2013-01-15 11:30:00,
2013-01-15 05:32:00,20.7,17.2,30.31,NNE,26,2.0,6.0,86,0.00,,---,0.00,VWS V14.00,2013-01-15 11:32:00,
2013-01-15 05:35:00,20.7,17.2,30.31,NNE,26,3.0,6.0,86,0.00,,---,0.00,VWS V14.00,2013-01-15 11:35:00,
2013-01-15 05:37:00,20.7,17.2,30.31,NNE,26,4.0,4.0,86,0.00,,---,0.00,VWS V14.00,2013-01-15 11:37:00,
2013-01-15 05:40:00,20.7,17.2,30.31,NNE,26,3.0,6.0,86,0.00,,---,0.00,VWS V14.00,2013-01-15 11:40:00,
2013-01-15 05:42:00,20.7,17.2,30.31,NNE,26,4.0,6.0,86,0.00,,---,0.00,VWS V14.00,2013-01-15 11:42:00,
2013-01-15 05:45:00,20.7,17.2,30.30,NNE,26,2.0,6.0,86,0.00,,---,0.00,VWS V14.00,2013-01-15 11:45:00,
2013-01-15 05:47:00,20.7,17.2,30.30,NNE,26,6.0,7.0,86,0.00,,---,0.00,VWS V14.00,2013-01-15 11:47:00,
2013-01-15 05:50:00,20.7,17.2,30.30,NNE,26,3.0,7.0,86,0.00,,---,0.00,VWS V14.00,2013-01-15 11:50:00,
2013-01-15 05:52:00,20.8,17.3,30.31,NNE,26,1.0,5.0,86,0.00,,---,0.00,VWS V14.00,2013-01-15 11:52:00,
2013-01-15 05:55:00,20.8,17.3,30.31,NNE,26,1.0,5.0,86,0.00,,---,0.00,VWS V14.00,2013-01-15 11:55:00,
2013-01-15 05:57:00,20.8,17.3,30.30,NNE,26,3.0,7.0,86,0.00,,---,0.00,VWS V14.00,2013-01-15 11:57:00,
2013-01-15 06:00:00,20.9,17.4,30.30,NNE,26,3.0,9.0,86,0.00,,---,0.00,VWS V14.00,2013-01-15 12:00:00,
2013-01-15 06:02:00,20.9,17.4,30.30,NNE,26,5.0,7.0,86,0.00,,---,0.00,VWS V14.00,2013-01-15 12:02:00,
2013-01-15 06:05:00,20.9,17.4,30.31,NNE,26,4.0,7.0,86,0.00,,---,0.00,VWS V14.00,2013-01-15 12:05:00,
2013-01-15 06:07:00,21.0,17.5,30.31,NNE,26,1.0,6.0,86,0.00,,---,0.00,VWS V14.00,2013-01-15 12:07:00,
2013-01-15 06:10:00,21.0,17.5,30.31,NNE,26,3.0,6.0,86,0.00,,---,0.00,VWS V14.00,2013-01-15 12:10:00,
2013-01-15 06:12:00,21.1,17.6,30.31,NNE,26,4.0,6.0,86,0.00,,---,0.00,VWS V14.00,2013-01-15 12:12:00,
2013-01-15 06:15:00,21.1,17.6,30.31,NNE,26,5.0,6.0,86,0.00,,---,0.00,VWS V14.00,2013-01-15 12:15:00,
2013-01-15 06:17:00,21.2,17.7,30.31,NNE,26,4.0,5.0,86,0.00,,---,0.00,VWS V14.00,2013-01-15 12:17:00,
2013-01-15 06:20:00,21.2,17.7,30.30,NNE,26,5.0,5.0,86,0.00,,---,0.00,VWS V14.00,2013-01-15 12:20:00,
2013-01-15 06:22:00,21.3,17.8,30.28,NNE,26,6.0,8.0,86,0.00,,---,0.00,VWS V14.00,2013-01-15 12:22:00,
2013-01-15 06:25:00,21.3,17.8,30.27,NNE,26,4.0,10.0,86,0.00,,---,0.00,VWS V14.00,2013-01-15 12:25:00,
2013-01-15 06:27:00,21.3,17.8,30.27,NNE,26,10.0,10.0,86,0.00,,---,0.00,VWS V14.00,2013-01-15 12:27:00,
2013-01-15 06:30:00,21.3,17.8,30.26,NNE,26,7.0,10.0,86,0.00,,---,0.00,VWS V14.00,2013-01-15 12:30:00,
2013-01-15 06:32:00,21.3,17.8,30.26,NNE,25,7.0,8.0,86,0.00,,---,0.00,VWS V14.00,2013-01-15 12:32:00,
2013-01-15 06:35:00,21.3,17.8,30.25,NNE,26,10.0,10.0,86,0.00,,---,0.00,VWS V14.00,2013-01-15 12:35:00,
2013-01-15 06:37:00,21.3,17.8,30.26,NNE,24,5.0,11.0,86,0.00,,---,0.00,VWS V14.00,2013-01-15 12:37:00,
2013-01-15 06:40:00,21.4,17.9,30.26,NNE,23,6.0,11.0,86,0.00,,---,0.00,VWS V14.00,2013-01-15 12:40:00,
2013-01-15 06:42:00,21.4,17.9,30.25,NNE,17,8.0,11.0,86,0.00,,---,0.00,VWS V14.00,2013-01-15 12:42:00,
2013-01-15 06:45:00,21.4,17.9,30.26,NNE,17,7.0,11.0,86,0.00,,---,0.00,VWS V14.00,2013-01-15 12:45:00,
2013-01-15 06:47:00,21.5,18.0,30.28,NNE,17,4.0,10.0,86,0.00,,---,0.00,VWS V14.00,2013-01-15 12:47:00,
2013-01-15 06:50:00,21.6,18.1,30.29,NNE,17,3.0,10.0,86,0.00,,---,0.00,VWS V14.00,2013-01-15 12:50:00,
2013-01-15 06:52:00,21.6,18.1,30.29,NNE,13,2.0,11.0,86,0.00,,---,0.00,VWS V14.00,2013-01-15 12:52:00,
2013-01-15 06:55:00,21.6,18.1,30.30,NNE,13,4.0,11.0,86,0.00,,---,0.00,VWS V14.00,2013-01-15 12:55:00,
2013-01-15 06:57:00,21.7,18.2,30.30,NNE,13,5.0,5.0,86,0.00,,---,0.00,VWS V14.00,2013-01-15 12:57:00,
2013-01-15 07:00:00,21.7,18.2,30.30,NNE,13,2.0,9.0,86,0.00,,---,0.00,VWS V14.00,2013-01-15 13:00:00,
2013-01-15 07:02:00,21.8,18.3,30.30,NNE,13,4.0,7.0,86,0.00,,---,0.00,VWS V14.00,2013-01-15 13:02:00,
2013-01-15 07:05:00,21.8,18.3,30.31,NNE,13,2.0,7.0,86,0.00,,---,0.00,VWS V14.00,2013-01-15 13:05:00,
2013-01-15 07:07:00,21.8,18.3,30.31,NNE,13,3.0,5.0,86,0.00,,---,0.00,VWS V14.00,2013-01-15 13:07:00,
2013-01-15 07:10:00,21.9,18.4,30.30,NNE,13,2.0,5.0,86,0.00,,---,0.00,VWS V14.00,2013-01-15 13:10:00,
2013-01-15 07:12:00,22.0,18.2,30.29,NNE,13,5.0,6.0,85,0.00,,---,0.00,VWS V14.00,2013-01-15 13:12:00,
2013-01-15 07:15:00,22.0,18.2,30.29,NNE,13,5.0,7.0,85,0.00,,---,0.00,VWS V14.00,2013-01-15 13:15:00,
2013-01-15 07:17:00,22.0,18.2,30.30,NNE,13,3.0,9.0,85,0.00,,---,0.00,VWS V14.00,2013-01-15 13:17:00,
2013-01-15 07:20:00,22.1,18.3,30.30,NNE,13,5.0,9.0,85,0.00,,---,0.00,VWS V14.00,2013-01-15 13:20:00,
2013-01-15 07:22:00,22.1,18.3,30.30,NNE,13,4.0,7.0,85,0.00,,---,0.00,VWS V14.00,2013-01-15 13:22:00,
2013-01-15 07:25:00,22.2,18.4,30.30,NNE,13,2.0,7.0,85,0.00,,---,0.00,VWS V14.00,2013-01-15 13:25:00,
2013-01-15 07:27:00,22.2,18.4,30.31,NNE,13,5.0,7.0,85,0.00,,---,0.00,VWS V14.00,2013-01-15 13:27:00,
2013-01-15 07:30:00,22.2,18.4,30.31,NNE,13,3.0,7.0,85,0.00,,---,0.00,VWS V14.00,2013-01-15 13:30:00,
2013-01-15 07:32:00,22.3,18.2,30.31,NNE,13,4.0,7.0,84,0.00,,---,0.00,VWS V14.00,2013-01-15 13:32:00,
2013-01-15 07:35:00,22.3,18.5,30.31,NNE,13,2.0,7.0,85,0.00,,---,0.00,VWS V14.00,2013-01-15 13:35:00,
2013-01-15 07:37:00,22.4,18.3,30.32,NNE,13,1.0,4.0,84,0.00,,---,0.00,VWS V14.00,2013-01-15 13:37:00,
2013-01-15 07:40:00,22.4,18.3,30.32,NNE,13,0.0,4.0,84,0.00,,---,0.00,VWS V14.00,2013-01-15 13:40:00,
2013-01-15 07:42:00,22.4,18.3,30.32,NNE,13,2.0,4.0,84,0.00,,---,0.00,VWS V14.00,2013-01-15 13:42:00,
2013-01-15 07:45:00,22.4,18.3,30.32,NNE,13,4.0,4.0,84,0.00,,---,0.00,VWS V14.00,2013-01-15 13:45:00,
2013-01-15 07:47:00,22.4,18.3,30.32,NNE,13,2.0,4.0,84,0.00,,---,0.00,VWS V14.00,2013-01-15 13:47:00,
2013-01-15 07:50:00,22.4,18.3,30.31,NNE,13,2.0,4.0,84,0.00,,---,0.00,VWS V14.00,2013-01-15 13:50:00,
2013-01-15 07:52:00,22.4,18.3,30.32,NNE,13,0.0,4.0,84,0.00,,---,0.00,VWS V14.00,2013-01-15 13:52:00,
2013-01-15 07:55:00,22.4,18.3,30.33,NNE,13,0.0,4.0,84,0.00,,---,0.00,VWS V14.00,2013-01-15 13:55:00,
2013-01-15 07:57:00,22.4,18.3,30.33,NNE,13,1.0,4.0,84,0.00,,---,0.00,VWS V14.00,2013-01-15 13:57:00,
2013-01-15 08:00:00,22.4,18.3,30.33,NNE,13,4.0,4.0,84,0.00,,---,0.00,VWS V14.00,2013-01-15 14:00:00,
2013-01-15 08:02:00,22.4,18.3,30.32,NNE,13,5.0,6.0,84,0.00,,---,0.00,VWS V14.00,2013-01-15 14:02:00,
2013-01-15 08:05:00,22.4,18.3,30.32,NNE,13,4.0,9.0,84,0.00,,---,0.00,VWS V14.00,2013-01-15 14:05:00,
2013-01-15 08:07:00,22.3,18.2,30.32,NNE,13,4.0,9.0,84,0.00,,---,0.00,VWS V14.00,2013-01-15 14:07:00,
2013-01-15 08:10:00,22.3,18.2,30.32,North,9,6.0,10.0,84,0.00,,---,0.00,VWS V14.00,2013-01-15 14:10:00,
2013-01-15 08:12:00,22.3,18.2,30.33,North,9,3.0,8.0,84,0.00,,---,0.00,VWS V14.00,2013-01-15 14:12:00,
2013-01-15 08:17:00,22.2,18.1,30.32,North,9,3.0,6.0,84,0.00,,---,0.00,VWS V14.00,2013-01-15 14:17:00,
2013-01-15 08:20:00,22.2,18.1,30.32,North,9,5.0,7.0,84,0.00,,---,0.00,VWS V14.00,2013-01-15 14:20:00,
2013-01-15 08:22:00,22.2,18.1,30.32,North,9,6.0,6.0,84,0.00,,---,0.00,VWS V14.00,2013-01-15 14:22:00,
2013-01-15 08:25:00,22.1,18.0,30.32,North,9,5.0,6.0,84,0.00,,---,0.00,VWS V14.00,2013-01-15 14:25:00,
2013-01-15 08:27:00,22.1,18.0,30.31,North,9,3.0,7.0,84,0.00,,---,0.00,VWS V14.00,2013-01-15 14:27:00,
2013-01-15 08:30:00,22.1,18.0,30.31,North,9,3.0,7.0,84,0.00,,---,0.00,VWS V14.00,2013-01-15 14:30:00,
2013-01-15 08:32:00,22.1,18.3,30.31,North,9,5.0,5.0,85,0.00,,---,0.00,VWS V14.00,2013-01-15 14:32:00,
2013-01-15 08:35:00,22.2,18.4,30.31,North,9,5.0,8.0,85,0.00,,---,0.00,VWS V14.00,2013-01-15 14:35:00,
2013-01-15 08:37:00,22.2,18.4,30.31,North,9,4.0,6.0,85,0.00,,---,0.00,VWS V14.00,2013-01-15 14:37:00,
2013-01-15 08:42:00,22.2,18.4,30.31,North,9,4.0,7.0,85,0.00,,---,0.00,VWS V14.00,2013-01-15 14:42:00,
2013-01-15 08:45:00,22.2,18.4,30.31,North,9,6.0,7.0,85,0.00,,---,0.00,VWS V14.00,2013-01-15 14:45:00,
2013-01-15 08:47:00,22.2,18.1,30.31,North,9,3.0,7.0,84,0.00,,---,0.00,VWS V14.00,2013-01-15 14:47:00,
2013-01-15 08:50:00,22.2,18.4,30.32,North,9,4.0,7.0,85,0.00,,---,0.00,VWS V14.00,2013-01-15 14:50:00,
2013-01-15 08:52:00,22.3,18.5,30.32,North,9,4.0,7.0,85,0.00,,---,0.00,VWS V14.00,2013-01-15 14:52:00,
2013-01-15 08:55:00,22.3,18.2,30.32,North,9,5.0,7.0,84,0.00,,---,0.00,VWS V14.00,2013-01-15 14:55:00,
2013-01-15 08:57:00,22.4,18.3,30.32,North,9,4.0,7.0,84,0.00,,---,0.00,VWS V14.00,2013-01-15 14:57:00,
2013-01-15 09:00:00,22.4,18.3,30.32,North,5,9.0,10.0,84,0.00,,---,0.00,VWS V14.00,2013-01-15 15:00:00,
2013-01-15 09:02:00,22.4,18.3,30.32,North,5,5.0,9.0,84,0.00,,---,0.00,VWS V14.00,2013-01-15 15:02:00,
2013-01-15 09:05:00,22.5,18.4,30.32,North,5,4.0,9.0,84,0.00,,---,0.00,VWS V14.00,2013-01-15 15:05:00,
2013-01-15 09:07:00,22.5,18.4,30.33,North,5,6.0,10.0,84,0.00,,---,0.00,VWS V14.00,2013-01-15 15:07:00,
2013-01-15 09:10:00,22.6,18.5,30.33,North,360,6.0,11.0,84,0.00,,---,0.00,VWS V14.00,2013-01-15 15:10:00,
2013-01-15 09:12:00,22.6,18.5,30.32,North,360,7.0,10.0,84,0.00,,---,0.00,VWS V14.00,2013-01-15 15:12:00,
2013-01-15 09:15:00,22.6,18.5,30.32,North,360,4.0,10.0,84,0.00,,---,0.00,VWS V14.00,2013-01-15 15:15:00,
2013-01-15 09:17:00,22.6,18.5,30.32,North,360,3.0,7.0,84,0.00,,---,0.00,VWS V14.00,2013-01-15 15:17:00,
2013-01-15 09:20:00,22.7,18.6,30.32,North,360,6.0,9.0,84,0.00,,---,0.00,VWS V14.00,2013-01-15 15:20:00,
2013-01-15 09:22:00,22.7,18.6,30.33,North,360,1.0,6.0,84,0.00,,---,0.00,VWS V14.00,2013-01-15 15:22:00,
2013-01-15 09:25:00,22.8,18.7,30.33,North,360,6.0,7.0,84,0.00,,---,0.00,VWS V14.00,2013-01-15 15:25:00,
2013-01-15 09:27:00,22.8,18.7,30.33,North,360,3.0,9.0,84,0.00,,---,0.00,VWS V14.00,2013-01-15 15:27:00,
2013-01-15 09:30:00,22.9,18.8,30.33,North,360,5.0,9.0,84,0.00,,---,0.00,VWS V14.00,2013-01-15 15:30:00,
2013-01-15 09:32:00,22.9,18.8,30.32,North,360,5.0,7.0,84,0.00,,---,0.00,VWS V14.00,2013-01-15 15:32:00,
2013-01-15 09:35:00,22.9,18.8,30.32,North,360,7.0,7.0,84,0.00,,---,0.00,VWS V14.00,2013-01-15 15:35:00,
2013-01-15 09:37:00,23.0,18.9,30.32,North,360,6.0,7.0,84,0.00,,---,0.00,VWS V14.00,2013-01-15 15:37:00,
2013-01-15 09:40:00,23.0,18.9,30.32,North,360,4.0,7.0,84,0.00,,---,0.00,VWS V14.00,2013-01-15 15:40:00,
2013-01-15 09:41:00,23.0,18.9,30.32,North,360,3.0,7.0,84,0.00,,---,0.00,VWS V14.00,2013-01-15 15:41:00,
2013-01-15 09:45:00,23.1,19.0,30.32,North,360,5.0,7.0,84,0.00,,---,0.00,VWS V14.00,2013-01-15 15:45:00,
2013-01-15 09:46:00,23.2,18.8,30.32,North,5,5.0,8.0,83,0.00,,---,0.00,VWS V14.00,2013-01-15 15:46:00,
2013-01-15 09:50:00,23.2,18.8,30.32,North,5,5.0,8.0,83,0.00,,---,0.00,VWS V14.00,2013-01-15 15:50:00,
2013-01-15 09:51:00,23.3,18.9,30.31,North,5,0.0,5.0,83,0.00,,---,0.00,VWS V14.00,2013-01-15 15:51:00,
2013-01-15 09:55:00,23.3,18.9,30.31,North,5,0.0,5.0,83,0.00,,---,0.00,VWS V14.00,2013-01-15 15:55:00,
2013-01-15 09:56:00,23.4,19.3,30.32,North,5,6.0,6.0,84,0.00,,---,0.00,VWS V14.00,2013-01-15 15:56:00,
2013-01-15 10:00:00,23.5,19.1,30.32,North,5,6.0,8.0,83,0.00,,---,0.00,VWS V14.00,2013-01-15 16:00:00,
2013-01-15 10:01:00,23.5,19.1,30.32,North,5,2.0,7.0,83,0.00,,---,0.00,VWS V14.00,2013-01-15 16:01:00,
2013-01-15 10:05:00,23.6,19.2,30.32,North,360,10.0,10.0,83,0.00,,---,0.00,VWS V14.00,2013-01-15 16:05:00,
2013-01-15 10:06:00,23.7,19.3,30.32,North,360,5.0,10.0,83,0.00,,---,0.00,VWS V14.00,2013-01-15 16:06:00,
2013-01-15 10:10:00,23.8,19.4,30.31,North,355,10.0,11.0,83,0.00,,---,0.00,VWS V14.00,2013-01-15 16:10:00,
2013-01-15 10:11:00,23.9,19.5,30.32,North,355,4.0,10.0,83,0.00,,---,0.00,VWS V14.00,2013-01-15 16:11:00,
2013-01-15 10:15:00,24.0,19.6,30.32,North,355,4.0,10.0,83,0.00,,---,0.00,VWS V14.00,2013-01-15 16:15:00,
2013-01-15 10:16:00,24.1,19.7,30.31,North,355,7.0,8.0,83,0.00,,---,0.00,VWS V14.00,2013-01-15 16:16:00,
2013-01-15 10:20:00,24.2,19.8,30.31,North,360,2.0,10.0,83,0.00,,---,0.00,VWS V14.00,2013-01-15 16:20:00,
2013-01-15 10:21:00,24.3,19.9,30.30,North,355,9.0,10.0,83,0.00,,---,0.00,VWS V14.00,2013-01-15 16:21:00,
2013-01-15 10:25:00,24.4,19.7,30.30,North,355,4.0,11.0,82,0.00,,---,0.00,VWS V14.00,2013-01-15 16:25:00,
2013-01-15 10:26:00,24.4,19.7,30.30,North,360,6.0,12.0,82,0.00,,---,0.00,VWS V14.00,2013-01-15 16:26:00,
2013-01-15 10:30:00,24.5,19.8,30.30,North,351,7.0,12.0,82,0.00,,---,0.00,VWS V14.00,2013-01-15 16:30:00,
2013-01-15 10:31:00,24.6,19.9,30.30,North,355,8.0,11.0,82,0.00,,---,0.00,VWS V14.00,2013-01-15 16:31:00,
2013-01-15 10:35:00,24.7,20.0,30.30,North,360,8.0,13.0,82,0.00,,---,0.00,VWS V14.00,2013-01-15 16:35:00,
2013-01-15 10:36:00,24.8,19.8,30.29,North,360,5.0,11.0,81,0.00,,---,0.00,VWS V14.00,2013-01-15 16:36:00,
2013-01-15 10:40:00,24.9,19.9,30.29,North,360,10.0,13.0,81,0.00,,---,0.00,VWS V14.00,2013-01-15 16:40:00,
2013-01-15 10:41:00,25.1,20.1,30.29,North,355,6.0,13.0,81,0.00,,---,0.00,VWS V14.00,2013-01-15 16:41:00,
2013-01-15 10:45:00,25.2,20.2,30.29,North,5,11.0,13.0,81,0.00,,---,0.00,VWS V14.00,2013-01-15 16:45:00,
2013-01-15 10:46:00,25.3,20.3,30.29,North,5,6.0,14.0,81,0.00,,---,0.00,VWS V14.00,2013-01-15 16:46:00,
2013-01-15 10:50:00,25.5,20.5,30.29,North,5,10.0,14.0,81,0.00,,---,0.00,VWS V14.00,2013-01-15 16:50:00,
2013-01-15 10:51:00,25.6,20.3,30.29,North,5,6.0,13.0,80,0.00,,---,0.00,VWS V14.00,2013-01-15 16:51:00,
2013-01-15 10:55:00,25.6,20.3,30.28,North,5,6.0,13.0,80,0.00,,---,0.00,VWS V14.00,2013-01-15 16:55:00,
2013-01-15 10:56:00,25.8,20.5,30.28,North,355,13.0,13.0,80,0.00,,---,0.00,VWS V14.00,2013-01-15 16:56:00,
2013-01-15 11:00:00,25.9,20.3,30.29,North,355,10.0,13.0,79,0.00,,---,0.00,VWS V14.00,2013-01-15 17:00:00,
2013-01-15 11:01:00,26.1,20.8,30.28,NNE,15,7.0,11.0,80,0.00,,---,0.00,VWS V14.00,2013-01-15 17:01:00,
2013-01-15 11:05:00,26.2,20.6,30.28,North,9,10.0,12.0,79,0.00,,---,0.00,VWS V14.00,2013-01-15 17:05:00,
2013-01-15 11:06:00,26.4,20.8,30.28,North,5,5.0,10.0,79,0.00,,---,0.00,VWS V14.00,2013-01-15 17:06:00,
2013-01-15 11:10:00,26.5,20.6,30.28,North,5,9.0,12.0,78,0.00,,---,0.00,VWS V14.00,2013-01-15 17:10:00,
2013-01-15 11:11:00,26.7,20.8,30.29,North,355,9.0,10.0,78,0.00,,---,0.00,VWS V14.00,2013-01-15 17:11:00,
2013-01-15 11:15:00,26.9,21.0,30.28,North,360,10.0,11.0,78,0.00,,---,0.00,VWS V14.00,2013-01-15 17:15:00,
2013-01-15 11:16:00,27.0,20.8,30.28,North,5,9.0,10.0,77,0.00,,---,0.00,VWS V14.00,2013-01-15 17:16:00,
2013-01-15 11:20:00,27.2,21.0,30.28,NNE,24,8.0,10.0,77,0.00,,---,0.00,VWS V14.00,2013-01-15 17:20:00,
2013-01-15 11:21:00,27.4,20.8,30.28,NNE,12,4.0,11.0,76,0.00,,---,0.00,VWS V14.00,2013-01-15 17:21:00,
2013-01-15 11:25:00,27.6,21.0,30.28,NNE,19,5.0,11.0,76,0.00,,---,0.00,VWS V14.00,2013-01-15 17:25:00,
2013-01-15 11:26:00,27.9,21.3,30.28,NNE,28,3.0,7.0,76,0.00,,---,0.00,VWS V14.00,2013-01-15 17:26:00,
2013-01-15 11:30:00,28.1,21.5,30.28,NNE,24,6.0,8.0,76,0.00,,---,0.00,VWS V14.00,2013-01-15 17:30:00,
2013-01-15 11:31:00,28.3,21.4,30.28,NNE,23,5.0,11.0,75,0.00,,---,0.00,VWS V14.00,2013-01-15 17:31:00,
2013-01-15 11:35:00,28.4,20.9,30.28,NNE,30,6.0,11.0,73,0.00,,---,0.00,VWS V14.00,2013-01-15 17:35:00,
2013-01-15 11:36:00,28.4,20.5,30.28,NNE,24,6.0,10.0,72,0.00,,---,0.00,VWS V14.00,2013-01-15 17:36:00,
2013-01-15 11:40:00,28.5,20.6,30.27,NNE,29,6.0,10.0,72,0.00,,---,0.00,VWS V14.00,2013-01-15 17:40:00,
2013-01-15 11:41:00,28.7,20.8,30.27,NNE,22,4.0,9.0,72,0.00,,---,0.00,VWS V14.00,2013-01-15 17:41:00,
2013-01-15 11:45:00,28.9,21.0,30.27,North,10,6.0,11.0,72,0.00,,---,0.00,VWS V14.00,2013-01-15 17:45:00,
2013-01-15 11:46:00,29.1,20.9,30.27,NNE,15,7.0,10.0,71,0.00,,---,0.00,VWS V14.00,2013-01-15 17:46:00,
2013-01-15 11:50:00,29.4,21.2,30.27,North,360,12.0,12.0,71,0.00,,---,0.00,VWS V14.00,2013-01-15 17:50:00,
2013-01-15 11:51:00,29.4,20.5,30.27,North,10,6.0,12.0,69,0.00,,---,0.00,VWS V14.00,2013-01-15 17:51:00,
2013-01-15 11:55:00,29.5,19.9,30.27,North,5,6.0,12.0,67,0.00,,---,0.00,VWS V14.00,2013-01-15 17:55:00,
2013-01-15 11:56:00,29.5,19.6,30.26,NNE,12,6.0,10.0,66,0.00,,---,0.00,VWS V14.00,2013-01-15 17:56:00,
2013-01-15 12:00:00,29.6,19.6,30.26,NNE,17,7.0,11.0,66,0.00,,---,0.00,VWS V14.00,2013-01-15 18:00:00,
2013-01-15 12:01:00,29.6,18.9,30.26,North,5,10.0,11.0,64,0.00,,---,0.00,VWS V14.00,2013-01-15 18:01:00,
2013-01-15 12:05:00,29.7,19.0,30.26,NNW,348,9.0,13.0,64,0.00,,---,0.00,VWS V14.00,2013-01-15 18:05:00,
2013-01-15 12:06:00,29.8,18.4,30.26,North,10,11.0,14.0,62,0.00,,---,0.00,VWS V14.00,2013-01-15 18:06:00,
2013-01-15 12:10:00,29.8,18.0,30.26,North,360,9.0,14.0,61,0.00,,---,0.00,VWS V14.00,2013-01-15 18:10:00,
2013-01-15 12:11:00,29.8,17.6,30.26,North,9,10.0,13.0,60,0.00,,---,0.00,VWS V14.00,2013-01-15 18:11:00,
2013-01-15 12:15:00,29.9,17.7,30.25,NNE,23,10.0,15.0,60,0.00,,---,0.00,VWS V14.00,2013-01-15 18:15:00,
2013-01-15 12:16:00,30.1,18.3,30.25,NNE,13,10.0,12.0,61,0.00,,---,0.00,VWS V14.00,2013-01-15 18:16:00,
2013-01-15 12:20:00,30.5,18.7,30.25,NNE,26,7.0,12.0,61,0.00,,---,0.00,VWS V14.00,2013-01-15 18:20:00,
2013-01-15 12:21:00,30.8,18.6,30.25,North,9,3.0,10.0,60,0.00,,---,0.00,VWS V14.00,2013-01-15 18:21:00,
2013-01-15 12:25:00,31.0,18.0,30.24,NNE,15,10.0,12.0,58,0.00,,---,0.00,VWS V14.00,2013-01-15 18:25:00,
2013-01-15 12:26:00,31.2,18.2,30.24,NNE,16,3.0,11.0,58,0.00,,---,0.00,VWS V14.00,2013-01-15 18:26:00,
2013-01-15 12:30:00,31.3,17.9,30.24,NNE,27,6.0,11.0,57,0.00,,---,0.00,VWS V14.00,2013-01-15 18:30:00,
2013-01-15 12:31:00,31.5,18.4,30.24,NNE,13,8.0,9.0,58,0.00,,---,0.00,VWS V14.00,2013-01-15 18:31:00,
2013-01-15 12:35:00,31.8,18.7,30.24,NNE,17,10.0,12.0,58,0.00,,---,0.00,VWS V14.00,2013-01-15 18:35:00,
2013-01-15 12:36:00,31.9,18.0,30.24,NNE,13,7.0,10.0,56,0.00,,---,0.00,VWS V14.00,2013-01-15 18:36:00,
2013-01-15 12:40:00,32.0,18.5,30.24,North,355,11.0,12.0,57,0.00,,---,0.00,VWS V14.00,2013-01-15 18:40:00,
2013-01-15 12:41:00,32.2,18.3,30.23,North,355,10.0,14.0,56,0.00,,---,0.00,VWS V14.00,2013-01-15 18:41:00,
2013-01-15 12:45:00,32.4,18.0,30.23,NNE,19,10.0,16.0,55,0.00,,---,0.00,VWS V14.00,2013-01-15 18:45:00,
2013-01-15 12:46:00,32.5,18.1,30.22,NNE,12,6.0,10.0,55,0.00,,---,0.00,VWS V14.00,2013-01-15 18:46:00,
2013-01-15 12:50:00,32.8,18.4,30.22,North,355,10.0,13.0,55,0.00,,---,0.00,VWS V14.00,2013-01-15 18:50:00,
2013-01-15 12:51:00,32.8,18.0,30.22,North,11,8.0,11.0,54,0.00,,---,0.00,VWS V14.00,2013-01-15 18:51:00,
2013-01-15 12:55:00,32.8,18.0,30.22,NNW,348,7.0,13.0,54,0.00,,---,0.00,VWS V14.00,2013-01-15 18:55:00,
2013-01-15 12:56:00,32.8,18.0,30.22,North,355,12.0,15.0,54,0.00,,---,0.00,VWS V14.00,2013-01-15 18:56:00,
2013-01-15 13:00:00,32.6,17.8,30.22,North,11,8.0,15.0,54,0.00,,---,0.00,VWS V14.00,2013-01-15 19:00:00,
2013-01-15 13:01:00,32.5,17.7,30.22,North,360,7.0,13.0,54,0.00,,---,0.00,VWS V14.00,2013-01-15 19:01:00,
2013-01-15 13:05:00,32.4,17.6,30.21,North,349,11.0,13.0,54,0.00,,---,0.00,VWS V14.00,2013-01-15 19:05:00,
2013-01-15 13:06:00,32.4,17.6,30.21,NNW,335,11.0,15.0,54,0.00,,---,0.00,VWS V14.00,2013-01-15 19:06:00,
2013-01-15 13:10:00,32.6,17.8,30.21,NNW,343,12.0,15.0,54,0.00,,---,0.00,VWS V14.00,2013-01-15 19:10:00,
2013-01-15 13:11:00,32.8,18.0,30.21,NNE,12,10.0,12.0,54,0.00,,---,0.00,VWS V14.00,2013-01-15 19:11:00,
2013-01-15 13:15:00,33.0,18.2,30.21,North,355,7.0,13.0,54,0.00,,---,0.00,VWS V14.00,2013-01-15 19:15:00,
2013-01-15 13:16:00,33.2,18.4,30.21,North,355,4.0,10.0,54,0.00,,---,0.00,VWS V14.00,2013-01-15 19:16:00,
2013-01-15 13:20:00,33.6,18.7,30.21,North,351,9.0,14.0,54,0.00,,---,0.00,VWS V14.00,2013-01-15 19:20:00,
2013-01-15 13:21:00,33.9,18.6,30.21,North,355,13.0,13.0,53,0.00,,---,0.00,VWS V14.00,2013-01-15 19:21:00,
2013-01-15 13:25:00,34.0,18.2,30.21,North,355,9.0,13.0,52,0.00,,---,0.00,VWS V14.00,2013-01-15 19:25:00,
2013-01-15 13:26:00,34.0,17.8,30.21,NNW,341,11.0,15.0,51,0.00,,---,0.00,VWS V14.00,2013-01-15 19:26:00,
2013-01-15 13:30:00,33.9,17.2,30.21,North,355,10.0,15.0,50,0.00,,---,0.00,VWS V14.00,2013-01-15 19:30:00,
2013-01-15 13:31:00,33.7,17.0,30.21,North,350,13.0,13.0,50,0.00,,---,0.00,VWS V14.00,2013-01-15 19:31:00,
2013-01-15 13:35:00,33.5,16.9,30.21,North,355,12.0,13.0,50,0.00,,---,0.00,VWS V14.00,2013-01-15 19:35:00,
2013-01-15 13:36:00,33.4,16.8,30.21,North,355,8.0,12.0,50,0.00,,---,0.00,VWS V14.00,2013-01-15 19:36:00,
2013-01-15 13:40:00,33.4,17.2,30.21,North,360,8.0,12.0,51,0.00,,---,0.00,VWS V14.00,2013-01-15 19:40:00,
2013-01-15 13:41:00,33.4,16.8,30.21,North,355,6.0,13.0,50,0.00,,---,0.00,VWS V14.00,2013-01-15 19:41:00,
2013-01-15 13:45:00,33.4,17.2,30.21,North,355,10.0,13.0,51,0.00,,---,0.00,VWS V14.00,2013-01-15 19:45:00,
2013-01-15 13:46:00,33.4,16.8,30.20,North,355,9.0,14.0,50,0.00,,---,0.00,VWS V14.00,2013-01-15 19:46:00,
2013-01-15 13:50:00,33.5,17.3,30.20,North,355,6.0,14.0,51,0.00,,---,0.00,VWS V14.00,2013-01-15 19:50:00,
2013-01-15 13:51:00,33.5,16.9,30.21,NNW,346,5.0,13.0,50,0.00,,---,0.00,VWS V14.00,2013-01-15 19:51:00,
2013-01-15 13:55:00,33.5,16.4,30.20,North,5,11.0,15.0,49,0.00,,---,0.00,VWS V14.00,2013-01-15 19:55:00,
2013-01-15 13:56:00,33.5,16.4,30.20,NNE,17,5.0,13.0,49,0.00,,---,0.00,VWS V14.00,2013-01-15 19:56:00,
2013-01-15 14:00:00,33.6,16.5,30.20,North,355,10.0,13.0,49,0.00,,---,0.00,VWS V14.00,2013-01-15 20:00:00,
2013-01-15 14:01:00,33.5,16.4,30.20,NNE,22,7.0,14.0,49,0.00,,---,0.00,VWS V14.00,2013-01-15 20:01:00,
2013-01-15 14:05:00,33.5,16.9,30.20,NNE,20,8.0,14.0,50,0.00,,---,0.00,VWS V14.00,2013-01-15 20:05:00,
2013-01-15 14:06:00,33.6,17.0,30.21,NNE,19,7.0,13.0,50,0.00,,---,0.00,VWS V14.00,2013-01-15 20:06:00,
2013-01-15 14:10:00,33.5,16.9,30.21,North,11,5.0,13.0,50,0.00,,---,0.00,VWS V14.00,2013-01-15 20:10:00,
2013-01-15 14:11:00,33.5,17.3,30.21,North,360,9.0,12.0,51,0.00,,---,0.00,VWS V14.00,2013-01-15 20:11:00,
2013-01-15 14:15:00,33.6,17.0,30.21,North,9,4.0,12.0,50,0.00,,---,0.00,VWS V14.00,2013-01-15 20:15:00,
2013-01-15 14:16:00,33.6,17.0,30.21,North,355,7.0,13.0,50,0.00,,---,0.00,VWS V14.00,2013-01-15 20:16:00,
2013-01-15 14:20:00,33.6,17.0,30.21,North,355,8.0,13.0,50,0.00,,---,0.00,VWS V14.00,2013-01-15 20:20:00,
2013-01-15 14:21:00,33.6,17.0,30.21,North,5,10.0,12.0,50,0.00,,---,0.00,VWS V14.00,2013-01-15 20:21:00,
2013-01-15 14:25:00,33.5,16.4,30.21,North,355,5.0,12.0,49,0.00,,---,0.00,VWS V14.00,2013-01-15 20:25:00,
2013-01-15 14:26:00,33.6,17.0,30.21,North,351,6.0,11.0,50,0.00,,---,0.00,VWS V14.00,2013-01-15 20:26:00,
2013-01-15 14:30:00,33.6,17.4,30.22,North,9,10.0,12.0,51,0.00,,---,0.00,VWS V14.00,2013-01-15 20:30:00,
2013-01-15 14:31:00,33.7,17.0,30.22,NNW,339,7.0,13.0,50,0.00,,---,0.00,VWS V14.00,2013-01-15 20:31:00,
2013-01-15 14:35:00,33.7,16.6,30.22,North,355,12.0,13.0,49,0.00,,---,0.00,VWS V14.00,2013-01-15 20:35:00,
2013-01-15 14:36:00,33.6,16.5,30.22,North,360,10.0,12.0,49,0.00,,---,0.00,VWS V14.00,2013-01-15 20:36:00,
2013-01-15 14:40:00,33.6,16.5,30.22,North,5,6.0,13.0,49,0.00,,---,0.00,VWS V14.00,2013-01-15 20:40:00,
2013-01-15 14:41:00,33.6,16.5,30.22,North,360,10.0,12.0,49,0.00,,---,0.00,VWS V14.00,2013-01-15 20:41:00,
2013-01-15 14:45:00,33.7,16.6,30.22,NNE,16,7.0,12.0,49,0.00,,---,0.00,VWS V14.00,2013-01-15 20:45:00,
2013-01-15 14:46:00,33.7,16.1,30.22,North,355,8.0,11.0,48,0.00,,---,0.00,VWS V14.00,2013-01-15 20:46:00,
2013-01-15 14:50:00,33.8,16.2,30.22,North,360,9.0,12.0,48,0.00,,---,0.00,VWS V14.00,2013-01-15 20:50:00,
2013-01-15 14:51:00,33.8,16.2,30.22,North,360,5.0,9.0,48,0.00,,---,0.00,VWS V14.00,2013-01-15 20:51:00,
2013-01-15 14:55:00,34.0,16.4,30.22,NNW,348,12.0,14.0,48,0.00,,---,0.00,VWS V14.00,2013-01-15 20:55:00,
2013-01-15 14:56:00,34.1,16.5,30.22,North,351,8.0,13.0,48,0.00,,---,0.00,VWS V14.00,2013-01-15 20:56:00,
2013-01-15 15:00:00,34.2,16.6,30.22,NNW,348,11.0,14.0,48,0.00,,---,0.00,VWS V14.00,2013-01-15 21:00:00,
2013-01-15 15:01:00,34.2,16.1,30.22,North,5,12.0,14.0,47,0.00,,---,0.00,VWS V14.00,2013-01-15 21:01:00,
2013-01-15 15:05:00,34.3,16.7,30.22,NNW,348,9.0,14.0,48,0.00,,---,0.00,VWS V14.00,2013-01-15 21:05:00,
2013-01-15 15:06:00,34.4,16.8,30.22,North,350,6.0,13.0,48,0.00,,---,0.00,VWS V14.00,2013-01-15 21:06:00,
2013-01-15 15:10:00,34.4,16.8,30.22,NNW,344,10.0,13.0,48,0.00,,---,0.00,VWS V14.00,2013-01-15 21:10:00,
2013-01-15 15:11:00,34.4,16.3,30.22,North,5,11.0,12.0,47,0.00,,---,0.00,VWS V14.00,2013-01-15 21:11:00,
2013-01-15 15:15:00,34.4,16.3,30.22,NNW,348,10.0,15.0,47,0.00,,---,0.00,VWS V14.00,2013-01-15 21:15:00,
2013-01-15 15:16:00,34.4,15.8,30.22,North,360,8.0,11.0,46,0.00,,---,0.00,VWS V14.00,2013-01-15 21:16:00,
2013-01-15 15:20:00,34.4,15.8,30.22,NNW,344,12.0,12.0,46,0.00,,---,0.00,VWS V14.00,2013-01-15 21:20:00,
2013-01-15 15:21:00,34.4,15.8,30.22,NNW,348,9.0,14.0,46,0.00,,---,0.00,VWS V14.00,2013-01-15 21:21:00,
2013-01-15 15:25:00,34.4,16.3,30.22,North,350,12.0,14.0,47,0.00,,---,0.00,VWS V14.00,2013-01-15 21:25:00,
2013-01-15 15:26:00,34.4,16.3,30.23,North,350,5.0,12.0,47,0.00,,---,0.00,VWS V14.00,2013-01-15 21:26:00,
2013-01-15 15:30:00,34.4,16.8,30.23,NNW,348,8.0,12.0,48,0.00,,---,0.00,VWS V14.00,2013-01-15 21:30:00,
2013-01-15 15:31:00,34.4,16.8,30.23,NNW,348,3.0,9.0,48,0.00,,---,0.00,VWS V14.00,2013-01-15 21:31:00,
2013-01-15 15:35:00,34.4,16.3,30.23,North,355,5.0,11.0,47,0.00,,---,0.00,VWS V14.00,2013-01-15 21:35:00,
2013-01-15 15:36:00,34.4,16.3,30.23,NNW,346,6.0,10.0,47,0.00,,---,0.00,VWS V14.00,2013-01-15 21:36:00,
2013-01-15 15:40:00,34.4,16.8,30.23,North,350,6.0,11.0,48,0.00,,---,0.00,VWS V14.00,2013-01-15 21:40:00,
2013-01-15 15:41:00,34.4,16.3,30.23,North,349,9.0,14.0,47,0.00,,---,0.00,VWS V14.00,2013-01-15 21:41:00,
2013-01-15 15:45:00,34.4,16.3,30.23,North,5,5.0,14.0,47,0.00,,---,0.00,VWS V14.00,2013-01-15 21:45:00,
2013-01-15 15:46:00,34.3,16.2,30.23,NNE,13,5.0,11.0,47,0.00,,---,0.00,VWS V14.00,2013-01-15 21:46:00,
2013-01-15 15:50:00,34.1,16.0,30.23,North,5,7.0,13.0,47,0.00,,---,0.00,VWS V14.00,2013-01-15 21:50:00,
2013-01-15 15:51:00,34.0,15.9,30.23,North,355,7.0,11.0,47,0.00,,---,0.00,VWS V14.00,2013-01-15 21:51:00,
2013-01-15 15:55:00,34.0,15.9,30.23,North,355,7.0,12.0,47,0.00,,---,0.00,VWS V14.00,2013-01-15 21:55:00,
2013-01-15 15:56:00,33.9,15.8,30.23,North,351,6.0,12.0,47,0.00,,---,0.00,VWS V14.00,2013-01-15 21:56:00,
2013-01-15 16:00:00,33.9,15.8,30.23,North,5,5.0,12.0,47,0.00,,---,0.00,VWS V14.00,2013-01-15 22:00:00,
2013-01-15 16:01:00,33.9,15.8,30.23,North,360,6.0,10.0,47,0.00,,---,0.00,VWS V14.00,2013-01-15 22:01:00,
2013-01-15 16:05:00,33.8,15.7,30.24,North,355,6.0,10.0,47,0.00,,---,0.00,VWS V14.00,2013-01-15 22:05:00,
2013-01-15 16:06:00,33.8,15.7,30.24,North,355,5.0,10.0,47,0.00,,---,0.00,VWS V14.00,2013-01-15 22:06:00,
2013-01-15 16:10:00,33.8,15.7,30.24,North,360,5.0,10.0,47,0.00,,---,0.00,VWS V14.00,2013-01-15 22:10:00,
2013-01-15 16:11:00,33.8,16.2,30.24,North,5,6.0,10.0,48,0.00,,---,0.00,VWS V14.00,2013-01-15 22:11:00,
2013-01-15 16:15:00,33.8,15.7,30.24,North,5,4.0,11.0,47,0.00,,---,0.00,VWS V14.00,2013-01-15 22:15:00,
2013-01-15 16:16:00,33.8,15.7,30.24,North,5,5.0,8.0,47,0.00,,---,0.00,VWS V14.00,2013-01-15 22:16:00,
2013-01-15 16:20:00,33.8,15.7,30.24,North,5,6.0,10.0,47,0.00,,---,0.00,VWS V14.00,2013-01-15 22:20:00,
2013-01-15 16:21:00,33.8,15.7,30.24,North,5,7.0,9.0,47,0.00,,---,0.00,VWS V14.00,2013-01-15 22:21:00,
2013-01-15 16:25:00,33.8,15.7,30.25,North,360,8.0,10.0,47,0.00,,---,0.00,VWS V14.00,2013-01-15 22:25:00,
2013-01-15 16:26:00,33.7,15.6,30.25,North,360,9.0,10.0,47,0.00,,---,0.00,VWS V14.00,2013-01-15 22:26:00,
2013-01-15 16:30:00,33.7,15.6,30.25,North,360,2.0,10.0,47,0.00,,---,0.00,VWS V14.00,2013-01-15 22:30:00,
2013-01-15 16:31:00,33.7,15.6,30.25,North,360,6.0,9.0,47,0.00,,---,0.00,VWS V14.00,2013-01-15 22:31:00,
2013-01-15 16:35:00,33.6,15.0,30.25,North,355,9.0,11.0,46,0.00,,---,0.00,VWS V14.00,2013-01-15 22:35:00,
2013-01-15 16:36:00,33.6,15.0,30.25,North,355,8.0,10.0,46,0.00,,---,0.00,VWS V14.00,2013-01-15 22:36:00,
2013-01-15 16:40:00,33.6,15.0,30.24,North,355,7.0,10.0,46,0.00,,---,0.00,VWS V14.00,2013-01-15 22:40:00,
2013-01-15 16:41:00,33.5,14.9,30.24,North,355,8.0,11.0,46,0.00,,---,0.00,VWS V14.00,2013-01-15 22:41:00,
2013-01-15 16:45:00,33.5,14.9,30.25,North,355,3.0,11.0,46,0.00,,---,0.00,VWS V14.00,2013-01-15 22:45:00,
2013-01-15 16:46:00,33.5,14.9,30.25,North,355,3.0,7.0,46,0.00,,---,0.00,VWS V14.00,2013-01-15 22:46:00,
2013-01-15 16:50:00,33.4,14.9,30.25,North,355,3.0,9.0,46,0.00,,---,0.00,VWS V14.00,2013-01-15 22:50:00,
2013-01-15 16:51:00,33.4,15.4,30.25,North,355,5.0,6.0,47,0.00,,---,0.00,VWS V14.00,2013-01-15 22:51:00,
2013-01-15 16:55:00,33.4,14.9,30.24,North,360,7.0,10.0,46,0.00,,---,0.00,VWS V14.00,2013-01-15 22:55:00,
2013-01-15 16:56:00,33.4,14.9,30.24,North,5,6.0,12.0,46,0.00,,---,0.00,VWS V14.00,2013-01-15 22:56:00,
2013-01-15 17:00:00,33.3,14.8,30.24,North,9,5.0,12.0,46,0.00,,---,0.00,VWS V14.00,2013-01-15 23:00:00,
2013-01-15 17:01:00,33.3,15.3,30.24,North,360,6.0,9.0,47,0.00,,---,0.00,VWS V14.00,2013-01-15 23:01:00,
2013-01-15 17:05:00,33.3,15.3,30.24,North,360,6.0,9.0,47,0.00,,---,0.00,VWS V14.00,2013-01-15 23:05:00,
2013-01-15 17:06:00,33.2,15.2,30.24,North,360,4.0,8.0,47,0.00,,---,0.00,VWS V14.00,2013-01-15 23:06:00,
2013-01-15 17:10:00,33.2,15.2,30.24,North,360,5.0,8.0,47,0.00,,---,0.00,VWS V14.00,2013-01-15 23:10:00,
2013-01-15 17:11:00,33.2,15.2,30.24,North,360,3.0,5.0,47,0.00,,---,0.00,VWS V14.00,2013-01-15 23:11:00,
2013-01-15 17:15:00,33.1,15.1,30.24,North,360,4.0,6.0,47,0.00,,---,0.00,VWS V14.00,2013-01-15 23:15:00,
2013-01-15 17:16:00,33.1,15.1,30.25,North,360,4.0,7.0,47,0.00,,---,0.00,VWS V14.00,2013-01-15 23:16:00,
2013-01-15 17:20:00,33.1,15.1,30.25,North,360,2.0,7.0,47,0.00,,---,0.00,VWS V14.00,2013-01-15 23:20:00,
2013-01-15 17:21:00,33.0,15.0,30.25,North,360,2.0,6.0,47,0.00,,---,0.00,VWS V14.00,2013-01-15 23:21:00,
2013-01-15 17:25:00,33.0,15.0,30.25,North,360,4.0,9.0,47,0.00,,---,0.00,VWS V14.00,2013-01-15 23:25:00,
2013-01-15 17:26:00,33.0,15.5,30.25,North,360,4.0,5.0,48,0.00,,---,0.00,VWS V14.00,2013-01-15 23:26:00,
2013-01-15 17:30:00,33.0,15.5,30.25,North,360,5.0,6.0,48,0.00,,---,0.00,VWS V14.00,2013-01-15 23:30:00,
2013-01-15 17:31:00,32.9,15.4,30.24,North,360,4.0,7.0,48,0.00,,---,0.00,VWS V14.00,2013-01-15 23:31:00,
2013-01-15 17:35:00,32.9,15.4,30.24,North,360,5.0,7.0,48,0.00,,---,0.00,VWS V14.00,2013-01-15 23:35:00,
2013-01-15 17:36:00,32.9,15.4,30.25,North,360,3.0,7.0,48,0.00,,---,0.00,VWS V14.00,2013-01-15 23:36:00,
2013-01-15 17:40:00,32.8,15.8,30.25,North,360,3.0,7.0,49,0.00,,---,0.00,VWS V14.00,2013-01-15 23:40:00,
2013-01-15 17:41:00,32.8,15.8,30.25,North,360,1.0,6.0,49,0.00,,---,0.00,VWS V14.00,2013-01-15 23:41:00,
2013-01-15 17:45:00,32.8,15.8,30.25,North,360,2.0,6.0,49,0.00,,---,0.00,VWS V14.00,2013-01-15 23:45:00,
2013-01-15 17:46:00,32.8,15.8,30.25,North,360,1.0,3.0,49,0.00,,---,0.00,VWS V14.00,2013-01-15 23:46:00,
2013-01-15 17:50:00,32.7,15.7,30.25,North,360,4.0,5.0,49,0.00,,---,0.00,VWS V14.00,2013-01-15 23:50:00,
2013-01-15 17:51:00,32.7,15.7,30.25,North,360,1.0,4.0,49,0.00,,---,0.00,VWS V14.00,2013-01-15 23:51:00,
2013-01-15 17:55:00,32.7,15.7,30.25,North,360,1.0,5.0,49,0.00,,---,0.00,VWS V14.00,2013-01-15 23:55:00,
2013-01-15 17:56:00,32.7,15.7,30.25,North,360,2.0,3.0,49,0.00,,---,0.00,VWS V14.00,2013-01-15 23:56:00,
2013-01-15 18:00:00,32.7,15.7,30.25,North,360,0.0,4.0,49,0.00,,---,0.00,VWS V14.00,2013-01-16 00:00:00,
2013-01-15 18:01:00,32.7,15.7,30.25,North,360,0.0,4.0,49,0.00,,---,0.00,VWS V14.00,2013-01-16 00:01:00,
2013-01-15 18:05:00,32.6,15.6,30.25,North,360,0.0,4.0,49,0.00,,---,0.00,VWS V14.00,2013-01-16 00:05:00,
2013-01-15 18:06:00,32.6,16.0,30.25,North,360,1.0,1.0,50,0.00,,---,0.00,VWS V14.00,2013-01-16 00:06:00,
2013-01-15 18:10:00,32.6,16.0,30.25,North,360,0.0,1.0,50,0.00,,---,0.00,VWS V14.00,2013-01-16 00:10:00,
2013-01-15 18:11:00,32.5,15.9,30.25,North,360,0.0,0.0,50,0.00,,---,0.00,VWS V14.00,2013-01-16 00:11:00,
2013-01-15 18:15:00,32.5,15.9,30.25,North,360,0.0,0.0,50,0.00,,---,0.00,VWS V14.00,2013-01-16 00:15:00,
2013-01-15 18:16:00,32.5,15.9,30.25,North,360,0.0,0.0,50,0.00,,---,0.00,VWS V14.00,2013-01-16 00:16:00,
2013-01-15 18:20:00,32.4,15.9,30.25,North,360,0.0,0.0,50,0.00,,---,0.00,VWS V14.00,2013-01-16 00:20:00,
2013-01-15 18:21:00,32.4,15.9,30.25,North,360,0.0,0.0,50,0.00,,---,0.00,VWS V14.00,2013-01-16 00:21:00,
2013-01-15 18:25:00,32.4,15.9,30.25,North,360,1.0,2.0,50,0.00,,---,0.00,VWS V14.00,2013-01-16 00:25:00,
2013-01-15 18:26:00,32.3,15.8,30.25,North,360,0.0,1.0,50,0.00,,---,0.00,VWS V14.00,2013-01-16 00:26:00,
2013-01-15 18:30:00,32.3,15.8,30.25,North,360,0.0,1.0,50,0.00,,---,0.00,VWS V14.00,2013-01-16 00:30:00,
2013-01-15 18:31:00,32.3,16.2,30.25,North,360,0.0,0.0,51,0.00,,---,0.00,VWS V14.00,2013-01-16 00:31:00,
2013-01-15 18:35:00,32.2,16.1,30.25,North,360,0.0,0.0,51,0.00,,---,0.00,VWS V14.00,2013-01-16 00:35:00,
2013-01-15 18:36:00,32.2,16.1,30.25,North,360,0.0,0.0,51,0.00,,---,0.00,VWS V14.00,2013-01-16 00:36:00,
2013-01-15 18:40:00,32.1,16.0,30.25,North,360,0.0,0.0,51,0.00,,---,0.00,VWS V14.00,2013-01-16 00:40:00,
2013-01-15 18:41:00,32.1,16.0,30.25,North,360,0.0,0.0,51,0.00,,---,0.00,VWS V14.00,2013-01-16 00:41:00,
2013-01-15 18:45:00,32.0,16.4,30.25,North,360,0.0,0.0,52,0.00,,---,0.00,VWS V14.00,2013-01-16 00:45:00,
2013-01-15 18:46:00,31.9,16.3,30.25,North,360,0.0,0.0,52,0.00,,---,0.00,VWS V14.00,2013-01-16 00:46:00,
2013-01-15 18:50:00,31.9,15.8,30.25,North,360,0.0,0.0,51,0.00,,---,0.00,VWS V14.00,2013-01-16 00:50:00,
2013-01-15 18:51:00,31.9,15.8,30.25,North,360,0.0,0.0,51,0.00,,---,0.00,VWS V14.00,2013-01-16 00:51:00,
2013-01-15 18:55:00,31.8,16.2,30.25,North,360,0.0,0.0,52,0.00,,---,0.00,VWS V14.00,2013-01-16 00:55:00,
2013-01-15 18:56:00,31.8,16.2,30.25,North,360,0.0,0.0,52,0.00,,---,0.00,VWS V14.00,2013-01-16 00:56:00,
2013-01-15 19:00:00,31.7,16.1,30.25,North,360,0.0,0.0,52,0.00,,---,0.00,VWS V14.00,2013-01-16 01:00:00,
2013-01-15 19:01:00,31.7,16.1,30.25,North,360,0.0,0.0,52,0.00,,---,0.00,VWS V14.00,2013-01-16 01:01:00,
2013-01-15 19:05:00,31.6,16.0,30.25,North,360,0.0,0.0,52,0.00,,---,0.00,VWS V14.00,2013-01-16 01:05:00,
2013-01-15 19:06:00,31.5,15.9,30.25,North,360,0.0,0.0,52,0.00,,---,0.00,VWS V14.00,2013-01-16 01:06:00,
2013-01-15 19:10:00,31.4,15.8,30.25,North,360,0.0,0.0,52,0.00,,---,0.00,VWS V14.00,2013-01-16 01:10:00,
2013-01-15 19:11:00,31.3,15.7,30.25,North,360,0.0,0.0,52,0.00,,---,0.00,VWS V14.00,2013-01-16 01:11:00,
2013-01-15 19:15:00,31.2,15.6,30.25,North,360,0.0,0.0,52,0.00,,---,0.00,VWS V14.00,2013-01-16 01:15:00,
2013-01-15 19:16:00,31.1,15.5,30.25,North,360,0.0,0.0,52,0.00,,---,0.00,VWS V14.00,2013-01-16 01:16:00,
2013-01-15 19:20:00,31.0,15.4,30.25,North,360,0.0,0.0,52,0.00,,---,0.00,VWS V14.00,2013-01-16 01:20:00,
2013-01-15 19:21:00,31.0,15.4,30.25,North,360,0.0,0.0,52,0.00,,---,0.00,VWS V14.00,2013-01-16 01:21:00,
2013-01-15 19:25:00,30.9,15.8,30.25,North,360,0.0,0.0,53,0.00,,---,0.00,VWS V14.00,2013-01-16 01:25:00,
2013-01-15 19:26:00,30.8,15.7,30.25,North,360,1.0,3.0,53,0.00,,---,0.00,VWS V14.00,2013-01-16 01:26:00,
2013-01-15 19:30:00,30.7,15.6,30.24,North,360,0.0,3.0,53,0.00,,---,0.00,VWS V14.00,2013-01-16 01:30:00,
2013-01-15 19:31:00,30.6,15.9,30.24,North,360,0.0,2.0,54,0.00,,---,0.00,VWS V14.00,2013-01-16 01:31:00,
2013-01-15 19:35:00,30.5,15.9,30.24,North,360,0.0,2.0,54,0.00,,---,0.00,VWS V14.00,2013-01-16 01:35:00,
2013-01-15 19:36:00,30.3,15.7,30.24,North,360,1.0,1.0,54,0.00,,---,0.00,VWS V14.00,2013-01-16 01:36:00,
2013-01-15 19:40:00,30.1,15.5,30.24,North,360,0.0,1.0,54,0.00,,---,0.00,VWS V14.00,2013-01-16 01:40:00,
2013-01-15 19:41:00,30.0,15.4,30.24,North,360,1.0,1.0,54,0.00,,---,0.00,VWS V14.00,2013-01-16 01:41:00,
2013-01-15 19:45:00,29.9,15.3,30.24,North,360,0.0,3.0,54,0.00,,---,0.00,VWS V14.00,2013-01-16 01:45:00,
2013-01-15 19:46:00,29.8,15.2,30.24,North,360,0.0,1.0,54,0.00,,---,0.00,VWS V14.00,2013-01-16 01:46:00,
2013-01-15 19:50:00,29.8,15.2,30.24,North,360,0.0,1.0,54,0.00,,---,0.00,VWS V14.00,2013-01-16 01:50:00,
2013-01-15 19:51:00,29.7,15.1,30.25,North,360,0.0,0.0,54,0.00,,---,0.00,VWS V14.00,2013-01-16 01:51:00,
2013-01-15 19:55:00,29.6,15.4,30.25,North,360,0.0,0.0,55,0.00,,---,0.00,VWS V14.00,2013-01-16 01:55:00,
2013-01-15 19:56:00,29.6,15.4,30.25,North,360,0.0,0.0,55,0.00,,---,0.00,VWS V14.00,2013-01-16 01:56:00,
2013-01-15 20:00:00,29.5,15.3,30.24,North,360,0.0,0.0,55,0.00,,---,0.00,VWS V14.00,2013-01-16 02:00:00,
2013-01-15 20:01:00,29.5,15.3,30.24,North,360,0.0,0.0,55,0.00,,---,0.00,VWS V14.00,2013-01-16 02:01:00,
2013-01-15 20:05:00,29.4,15.2,30.24,North,360,0.0,0.0,55,0.00,,---,0.00,VWS V14.00,2013-01-16 02:05:00,
2013-01-15 20:06:00,29.4,15.2,30.24,North,360,0.0,0.0,55,0.00,,---,0.00,VWS V14.00,2013-01-16 02:06:00,
2013-01-15 20:10:00,29.3,15.6,30.24,North,360,0.0,0.0,56,0.00,,---,0.00,VWS V14.00,2013-01-16 02:10:00,
2013-01-15 20:11:00,29.2,15.5,30.24,North,360,0.0,0.0,56,0.00,,---,0.00,VWS V14.00,2013-01-16 02:11:00,
2013-01-15 20:15:00,29.1,15.8,30.25,North,360,0.0,0.0,57,0.00,,---,0.00,VWS V14.00,2013-01-16 02:15:00,
2013-01-15 20:16:00,29.0,15.7,30.25,North,360,0.0,0.0,57,0.00,,---,0.00,VWS V14.00,2013-01-16 02:16:00,
2013-01-15 20:20:00,28.8,15.5,30.25,North,360,0.0,0.0,57,0.00,,---,0.00,VWS V14.00,2013-01-16 02:20:00,
2013-01-15 20:21:00,28.8,15.5,30.25,North,360,0.0,0.0,57,0.00,,---,0.00,VWS V14.00,2013-01-16 02:21:00,
2013-01-15 20:25:00,28.7,15.8,30.25,North,360,0.0,0.0,58,0.00,,---,0.00,VWS V14.00,2013-01-16 02:25:00,
2013-01-15 20:26:00,28.7,15.8,30.25,North,360,0.0,0.0,58,0.00,,---,0.00,VWS V14.00,2013-01-16 02:26:00,
2013-01-15 20:30:00,28.5,15.6,30.25,North,360,0.0,0.0,58,0.00,,---,0.00,VWS V14.00,2013-01-16 02:30:00,
2013-01-15 20:31:00,28.5,15.2,30.25,North,360,0.0,0.0,57,0.00,,---,0.00,VWS V14.00,2013-01-16 02:31:00,
2013-01-15 20:35:00,28.4,15.5,30.25,North,360,0.0,0.0,58,0.00,,---,0.00,VWS V14.00,2013-01-16 02:35:00,
2013-01-15 20:36:00,28.3,15.4,30.24,North,360,0.0,0.0,58,0.00,,---,0.00,VWS V14.00,2013-01-16 02:36:00,
2013-01-15 20:40:00,28.2,15.7,30.24,North,360,0.0,0.0,59,0.00,,---,0.00,VWS V14.00,2013-01-16 02:40:00,
2013-01-15 20:41:00,28.1,15.6,30.24,North,360,0.0,0.0,59,0.00,,---,0.00,VWS V14.00,2013-01-16 02:41:00,
2013-01-15 20:45:00,28.0,15.5,30.24,North,360,0.0,0.0,59,0.00,,---,0.00,VWS V14.00,2013-01-16 02:45:00,
2013-01-15 20:46:00,27.9,15.4,30.24,North,360,0.0,0.0,59,0.00,,---,0.00,VWS V14.00,2013-01-16 02:46:00,
2013-01-15 20:50:00,27.7,15.3,30.24,North,360,0.0,0.0,59,0.00,,---,0.00,VWS V14.00,2013-01-16 02:50:00,
2013-01-15 20:51:00,27.6,15.2,30.24,North,360,0.0,0.0,59,0.00,,---,0.00,VWS V14.00,2013-01-16 02:51:00,
2013-01-15 20:55:00,27.5,15.1,30.25,North,360,0.0,0.0,59,0.00,,---,0.00,VWS V14.00,2013-01-16 02:55:00,
2013-01-15 20:56:00,27.5,15.1,30.25,North,360,0.0,0.0,59,0.00,,---,0.00,VWS V14.00,2013-01-16 02:56:00,
2013-01-15 21:00:00,27.4,15.0,30.25,North,360,0.0,0.0,59,0.00,,---,0.00,VWS V14.00,2013-01-16 03:00:00,
2013-01-15 21:01:00,27.3,14.9,30.25,North,360,0.0,0.0,59,0.00,,---,0.00,VWS V14.00,2013-01-16 03:01:00,
2013-01-15 21:05:00,27.2,14.8,30.25,North,360,0.0,0.0,59,0.00,,---,0.00,VWS V14.00,2013-01-16 03:05:00,
2013-01-15 21:06:00,27.2,14.8,30.25,North,360,0.0,0.0,59,0.00,,---,0.00,VWS V14.00,2013-01-16 03:06:00,
2013-01-15 21:10:00,27.2,14.8,30.25,North,360,0.0,0.0,59,0.00,,---,0.00,VWS V14.00,2013-01-16 03:10:00,
2013-01-15 21:11:00,27.1,14.7,30.25,North,360,0.0,0.0,59,0.00,,---,0.00,VWS V14.00,2013-01-16 03:11:00,
2013-01-15 21:15:00,27.0,15.0,30.25,North,360,0.0,0.0,60,0.00,,---,0.00,VWS V14.00,2013-01-16 03:15:00,
2013-01-15 21:16:00,27.0,15.0,30.25,North,360,0.0,0.0,60,0.00,,---,0.00,VWS V14.00,2013-01-16 03:16:00,
2013-01-15 21:20:00,26.9,14.9,30.25,North,360,0.0,0.0,60,0.00,,---,0.00,VWS V14.00,2013-01-16 03:20:00,
2013-01-15 21:21:00,26.8,14.8,30.25,North,360,0.0,0.0,60,0.00,,---,0.00,VWS V14.00,2013-01-16 03:21:00,
2013-01-15 21:25:00,26.7,14.3,30.25,North,360,0.0,0.0,59,0.00,,---,0.00,VWS V14.00,2013-01-16 03:25:00,
2013-01-15 21:26:00,26.7,14.3,30.25,North,360,0.0,0.0,59,0.00,,---,0.00,VWS V14.00,2013-01-16 03:26:00,
2013-01-15 21:30:00,26.6,14.2,30.25,North,360,0.0,0.0,59,0.00,,---,0.00,VWS V14.00,2013-01-16 03:30:00,
2013-01-15 21:31:00,26.5,14.5,30.25,North,360,0.0,0.0,60,0.00,,---,0.00,VWS V14.00,2013-01-16 03:31:00,
2013-01-15 21:35:00,26.5,14.5,30.25,North,360,0.0,0.0,60,0.00,,---,0.00,VWS V14.00,2013-01-16 03:35:00,
2013-01-15 21:36:00,26.5,14.5,30.26,North,360,0.0,0.0,60,0.00,,---,0.00,VWS V14.00,2013-01-16 03:36:00,
2013-01-15 21:40:00,26.4,14.4,30.26,North,360,0.0,0.0,60,0.00,,---,0.00,VWS V14.00,2013-01-16 03:40:00,
2013-01-15 21:41:00,26.4,14.4,30.25,North,360,0.0,0.0,60,0.00,,---,0.00,VWS V14.00,2013-01-16 03:41:00,
2013-01-15 21:45:00,26.4,14.4,30.26,North,360,0.0,0.0,60,0.00,,---,0.00,VWS V14.00,2013-01-16 03:45:00,
2013-01-15 21:46:00,26.3,14.3,30.25,North,360,0.0,0.0,60,0.00,,---,0.00,VWS V14.00,2013-01-16 03:46:00,
2013-01-15 21:50:00,26.3,14.3,30.25,North,360,0.0,0.0,60,0.00,,---,0.00,VWS V14.00,2013-01-16 03:50:00,
2013-01-15 21:51:00,26.3,14.3,30.25,North,360,0.0,0.0,60,0.00,,---,0.00,VWS V14.00,2013-01-16 03:51:00,
2013-01-15 21:55:00,26.2,14.2,30.25,North,360,0.0,0.0,60,0.00,,---,0.00,VWS V14.00,2013-01-16 03:55:00,
2013-01-15 21:56:00,26.2,14.2,30.25,North,360,0.0,0.0,60,0.00,,---,0.00,VWS V14.00,2013-01-16 03:56:00,
2013-01-15 22:00:00,26.2,14.2,30.25,North,360,0.0,0.0,60,0.00,,---,0.00,VWS V14.00,2013-01-16 04:00:00,
2013-01-15 22:01:00,26.2,14.2,30.25,North,360,0.0,0.0,60,0.00,,---,0.00,VWS V14.00,2013-01-16 04:01:00,
2013-01-15 22:05:00,26.1,14.1,30.25,North,360,0.0,0.0,60,0.00,,---,0.00,VWS V14.00,2013-01-16 04:05:00,
2013-01-15 22:06:00,26.1,14.1,30.25,North,360,0.0,0.0,60,0.00,,---,0.00,VWS V14.00,2013-01-16 04:06:00,
2013-01-15 22:10:00,26.0,14.0,30.24,North,360,0.0,0.0,60,0.00,,---,0.00,VWS V14.00,2013-01-16 04:10:00,
2013-01-15 22:11:00,25.9,13.9,30.24,North,360,0.0,0.0,60,0.00,,---,0.00,VWS V14.00,2013-01-16 04:11:00,
2013-01-15 22:15:00,25.9,13.9,30.24,North,360,0.0,0.0,60,0.00,,---,0.00,VWS V14.00,2013-01-16 04:15:00,
2013-01-15 22:16:00,25.9,13.9,30.24,North,360,0.0,0.0,60,0.00,,---,0.00,VWS V14.00,2013-01-16 04:16:00,
2013-01-15 22:20:00,25.8,13.9,30.24,North,360,0.0,0.0,60,0.00,,---,0.00,VWS V14.00,2013-01-16 04:20:00,
2013-01-15 22:21:00,25.7,13.8,30.24,North,360,0.0,0.0,60,0.00,,---,0.00,VWS V14.00,2013-01-16 04:21:00,
2013-01-15 22:25:00,25.7,13.8,30.23,North,360,0.0,0.0,60,0.00,,---,0.00,VWS V14.00,2013-01-16 04:25:00,
2013-01-15 22:26:00,25.6,13.7,30.24,North,360,0.0,0.0,60,0.00,,---,0.00,VWS V14.00,2013-01-16 04:26:00,
2013-01-15 22:30:00,25.5,13.6,30.24,North,360,0.0,0.0,60,0.00,,---,0.00,VWS V14.00,2013-01-16 04:30:00,
2013-01-15 22:31:00,25.4,13.5,30.24,North,360,0.0,0.0,60,0.00,,---,0.00,VWS V14.00,2013-01-16 04:31:00,
2013-01-15 22:35:00,25.3,13.8,30.24,North,360,0.0,0.0,61,0.00,,---,0.00,VWS V14.00,2013-01-16 04:35:00,
2013-01-15 22:36:00,25.3,13.8,30.24,North,360,0.0,0.0,61,0.00,,---,0.00,VWS V14.00,2013-01-16 04:36:00,
2013-01-15 22:40:00,25.3,13.8,30.24,North,360,0.0,0.0,61,0.00,,---,0.00,VWS V14.00,2013-01-16 04:40:00,
2013-01-15 22:41:00,25.3,14.1,30.25,North,360,0.0,0.0,62,0.00,,---,0.00,VWS V14.00,2013-01-16 04:41:00,
2013-01-15 22:45:00,25.2,14.0,30.24,North,360,0.0,0.0,62,0.00,,---,0.00,VWS V14.00,2013-01-16 04:45:00,
2013-01-15 22:46:00,25.2,14.0,30.24,North,360,0.0,0.0,62,0.00,,---,0.00,VWS V14.00,2013-01-16 04:46:00,
2013-01-15 22:50:00,25.2,14.0,30.24,North,360,0.0,0.0,62,0.00,,---,0.00,VWS V14.00,2013-01-16 04:50:00,
2013-01-15 22:51:00,25.2,14.0,30.24,North,360,0.0,0.0,62,0.00,,---,0.00,VWS V14.00,2013-01-16 04:51:00,
2013-01-15 22:55:00,25.1,13.9,30.24,North,360,0.0,0.0,62,0.00,,---,0.00,VWS V14.00,2013-01-16 04:55:00,
2013-01-15 22:56:00,25.0,14.2,30.24,North,360,0.0,0.0,63,0.00,,---,0.00,VWS V14.00,2013-01-16 04:56:00,
2013-01-15 23:00:00,24.9,14.1,30.24,North,360,0.0,0.0,63,0.00,,---,0.00,VWS V14.00,2013-01-16 05:00:00,
2013-01-15 23:01:00,24.9,14.1,30.24,North,360,0.0,0.0,63,0.00,,---,0.00,VWS V14.00,2013-01-16 05:01:00,
2013-01-15 23:05:00,24.8,14.0,30.24,North,360,0.0,0.0,63,0.00,,---,0.00,VWS V14.00,2013-01-16 05:05:00,
2013-01-15 23:06:00,24.7,14.3,30.24,North,360,0.0,0.0,64,0.00,,---,0.00,VWS V14.00,2013-01-16 05:06:00,
2013-01-15 23:10:00,24.6,14.2,30.24,North,360,0.0,0.0,64,0.00,,---,0.00,VWS V14.00,2013-01-16 05:10:00,
2013-01-15 23:11:00,24.5,14.1,30.24,North,360,0.0,0.0,64,0.00,,---,0.00,VWS V14.00,2013-01-16 05:11:00,
2013-01-15 23:15:00,24.4,14.3,30.24,North,360,0.0,0.0,65,0.00,,---,0.00,VWS V14.00,2013-01-16 05:15:00,
2013-01-15 23:16:00,24.3,14.2,30.24,North,360,0.0,0.0,65,0.00,,---,0.00,VWS V14.00,2013-01-16 05:16:00,
2013-01-15 23:20:00,24.1,14.1,30.24,North,360,0.0,0.0,65,0.00,,---,0.00,VWS V14.00,2013-01-16 05:20:00,
2013-01-15 23:21:00,24.0,14.0,30.24,North,360,0.0,0.0,65,0.00,,---,0.00,VWS V14.00,2013-01-16 05:21:00,
2013-01-15 23:25:00,23.9,13.9,30.24,North,360,0.0,0.0,65,0.00,,---,0.00,VWS V14.00,2013-01-16 05:25:00,
2013-01-15 23:26:00,23.8,13.8,30.24,North,360,0.0,0.0,65,0.00,,---,0.00,VWS V14.00,2013-01-16 05:26:00,
2013-01-15 23:30:00,23.7,13.7,30.24,North,360,0.0,0.0,65,0.00,,---,0.00,VWS V14.00,2013-01-16 05:30:00,
2013-01-15 23:31:00,23.7,13.7,30.24,North,360,0.0,0.0,65,0.00,,---,0.00,VWS V14.00,2013-01-16 05:31:00,
2013-01-15 23:35:00,23.6,13.6,30.24,North,360,0.0,0.0,65,0.00,,---,0.00,VWS V14.00,2013-01-16 05:35:00,
2013-01-15 23:36:00,23.5,13.5,30.24,North,360,0.0,0.0,65,0.00,,---,0.00,VWS V14.00,2013-01-16 05:36:00,
2013-01-15 23:40:00,23.4,13.4,30.24,North,360,0.0,0.0,65,0.00,,---,0.00,VWS V14.00,2013-01-16 05:40:00,
2013-01-15 23:41:00,23.4,13.4,30.24,North,360,0.0,0.0,65,0.00,,---,0.00,VWS V14.00,2013-01-16 05:41:00,
2013-01-15 23:45:00,23.4,13.4,30.24,North,360,0.0,0.0,65,0.00,,---,0.00,VWS V14.00,2013-01-16 05:45:00,
2013-01-15 23:46:00,23.3,13.3,30.24,North,360,0.0,0.0,65,0.00,,---,0.00,VWS V14.00,2013-01-16 05:46:00,
2013-01-15 23:50:00,23.3,13.3,30.24,North,360,0.0,0.0,65,0.00,,---,0.00,VWS V14.00,2013-01-16 05:50:00,
2013-01-15 23:51:00,23.3,13.3,30.24,North,360,0.0,0.0,65,0.00,,---,0.00,VWS V14.00,2013-01-16 05:51:00,
2013-01-15 23:55:00,23.3,13.3,30.24,North,360,0.0,0.0,65,0.00,,---,0.00,VWS V14.00,2013-01-16 05:55:00,
2013-01-15 23:56:00,23.3,13.3,30.24,North,360,0.0,0.0,65,0.00,,---,0.00,VWS V14.00,2013-01-16 05:56:00,